Hourly Weather Almalyk

Today, 25 September, Friday

Time Temperature Precipitation Wind Pressure Humidity
00:00 +16°C° 0 mm 2 mps 689 mmHg 30%
01:00 +15°C° 0 mm 2 mps 689 mmHg 31%
02:00 +15°C° 0 mm 2 mps 689 mmHg 32%
03:00 +14°C° 0 mm 2 mps 689 mmHg 33%
04:00 +14°C° 0 mm 2 mps 688 mmHg 33%
05:00 +14°C° 0 mm 1 mps 688 mmHg 34%
06:00 +16°C° 0 mm 1 mps 688 mmHg 31%
07:00 +19°C° 0 mm 1 mps 689 mmHg 28%
08:00 +18°C° 0 mm 0 mps 689 mmHg 24%
09:00 +22°C° 0 mm 1 mps 689 mmHg 21%
10:00 +24°C° 0 mm 2 mps 688 mmHg 18%
11:00 +26°C° 0 mm 2 mps 688 mmHg 16%
12:00 +27°C° 0 mm 3 mps 688 mmHg 14%
13:00 +27°C° 0 mm 3 mps 687 mmHg 12%
14:00 +28°C° 0 mm 3 mps 687 mmHg 11%
15:00 +27°C° 0 mm 3 mps 687 mmHg 11%
16:00 +27°C° 0 mm 3 mps 687 mmHg 12%
17:00 +26°C° 0 mm 3 mps 687 mmHg 12%
18:00 +24°C° 0 mm 2 mps 687 mmHg 15%
19:00 +20°C° 0 mm 2 mps 687 mmHg 17%
20:00 +19°C° 0 mm 1 mps 687 mmHg 20%
21:00 +18°C° 0 mm 1 mps 686 mmHg 21%
22:00 +16°C° 0 mm 1 mps 686 mmHg 22%
23:00 +16°C° 0 mm 1 mps 686 mmHg 23%

Tomorrow, 26 September, Saturday

Time Temperature Precipitation Wind Pressure Humidity
00:00 +15°C° 0 mm 1 mps 686 mmHg 23%
01:00 +15°C° 0 mm 1 mps 685 mmHg 24%
02:00 +14°C° 0 mm 1 mps 685 mmHg 25%
03:00 +14°C° 0 mm 1 mps 685 mmHg 26%
04:00 +14°C° 0 mm 2 mps 685 mmHg 26%
05:00 +14°C° 0 mm 2 mps 685 mmHg 27%
06:00 +15°C° 0 mm 1 mps 685 mmHg 24%
07:00 +18°C° 0 mm 1 mps 686 mmHg 22%
08:00 +20°C° 0 mm 1 mps 686 mmHg 19%
09:00 +22°C° 0 mm 1 mps 686 mmHg 17%
10:00 +24°C° 0 mm 2 mps 686 mmHg 15%
11:00 +25°C° 0 mm 2 mps 686 mmHg 14%
12:00 +26°C° 0 mm 3 mps 686 mmHg 13%
13:00 +27°C° 0 mm 3 mps 686 mmHg 12%
14:00 +28°C° 0 mm 4 mps 685 mmHg 11%
15:00 +27°C° 0 mm 3 mps 685 mmHg 12%
16:00 +26°C° 0 mm 3 mps 686 mmHg 13%
17:00 +26°C° 0 mm 3 mps 686 mmHg 13%
18:00 +23°C° 0 mm 2 mps 686 mmHg 16%
19:00 +20°C° 0 mm 2 mps 686 mmHg 18%
20:00 +19°C° 0 mm 1 mps 686 mmHg 20%
21:00 +19°C° 0 mm 1 mps 686 mmHg 21%
22:00 +18°C° 0 mm 1 mps 686 mmHg 21%
23:00 +18°C° 0 mm 1 mps 686 mmHg 22%

Day after tomorrow, 27 September, Sunday

Time Temperature Precipitation Wind Pressure Humidity
00:00 +18°C° 0 mm 1 mps 686 mmHg 23%
01:00 +16°C° 0 mm 1 mps 685 mmHg 24%
02:00 +15°C° 0 mm 1 mps 685 mmHg 25%
03:00 +15°C° 0 mm 1 mps 685 mmHg 26%
04:00 +15°C° 0 mm 1 mps 686 mmHg 27%
05:00 +15°C° 0 mm 1 mps 686 mmHg 27%
06:00 +16°C° 0 mm 1 mps 686 mmHg 25%
07:00 +19°C° 0 mm 1 mps 687 mmHg 22%
08:00 +21°C° 0 mm 1 mps 687 mmHg 20%
09:00 +23°C° 0 mm 1 mps 687 mmHg 17%
10:00 +24°C° 0 mm 2 mps 688 mmHg 15%
11:00 +26°C° 0 mm 2 mps 688 mmHg 13%
12:00 +27°C° 0 mm 3 mps 688 mmHg 12%
13:00 +27°C° 0 mm 3 mps 687 mmHg 12%
14:00 +28°C° 0 mm 4 mps 687 mmHg 11%
15:00 +27°C° 0 mm 3 mps 687 mmHg 12%
16:00 +26°C° 0 mm 3 mps 687 mmHg 13%
17:00 +26°C° 0 mm 3 mps 687 mmHg 13%
18:00 +23°C° 0 mm 2 mps 687 mmHg 16%
19:00 +20°C° 0 mm 2 mps 687 mmHg 18%
20:00 +19°C° 0 mm 1 mps 687 mmHg 21%
21:00 +18°C° 0 mm 1 mps 687 mmHg 22%
22:00 +16°C° 0 mm 1 mps 687 mmHg 23%
23:00 +16°C° 0 mm 1 mps 687 mmHg 24%

28 September, Monday

Time Temperature Precipitation Wind Pressure Humidity
00:00 +15°C° 0 mm 1 mps 687 mmHg 25%
01:00 +15°C° 0 mm 2 mps 686 mmHg 26%
02:00 +15°C° 0 mm 2 mps 686 mmHg 26%
03:00 +14°C° 0 mm 2 mps 686 mmHg 27%
04:00 +14°C° 0 mm 2 mps 686 mmHg 27%
05:00 +14°C° 0 mm 2 mps 687 mmHg 28%
06:00 +16°C° 0 mm 2 mps 687 mmHg 25%
07:00 +19°C° 0 mm 1 mps 688 mmHg 23%
08:00 +20°C° 0 mm 1 mps 688 mmHg 20%
09:00 +22°C° 0 mm 1 mps 688 mmHg 18%
10:00 +23°C° 0 mm 2 mps 688 mmHg 17%
11:00 +24°C° 0 mm 2 mps 688 mmHg 15%
12:00 +25°C° 0 mm 3 mps 688 mmHg 15%
13:00 +25°C° 0 mm 3 mps 688 mmHg 14%
14:00 +26°C° 0 mm 3 mps 688 mmHg 14%
15:00 +25°C° 0 mm 3 mps 689 mmHg 15%
16:00 +24°C° 0 mm 2 mps 689 mmHg 16%
17:00 +24°C° 0 mm 2 mps 689 mmHg 17%
18:00 +22°C° 0 mm 1 mps 689 mmHg 18%
19:00 +21°C° 0 mm 1 mps 690 mmHg 20%
20:00 +17°C° 0 mm 0 mps 690 mmHg 22%
21:00 +17°C° 0 mm 0 mps 690 mmHg 23%
22:00 +17°C° 0 mm 0 mps 690 mmHg 24%
23:00 +16°C° 0 mm 0 mps 689 mmHg 24%

29 September, Tuesday

Time Temperature Precipitation Wind Pressure Humidity
00:00 +16°C° 0 mm 0 mps 689 mmHg 25%
01:00 +18°C° 0 mm 1 mps 689 mmHg 26%
02:00 +16°C° 0 mm 1 mps 689 mmHg 27%
03:00 +16°C° 0 mm 1 mps 689 mmHg 29%
04:00 +16°C° 0 mm 1 mps 689 mmHg 31%
05:00 +15°C° 0 mm 0 mps 689 mmHg 33%
06:00 +16°C° 0 mm 1 mps 689 mmHg 33%
07:00 +18°C° 0 mm 1 mps 690 mmHg 33%
08:00 +19°C° 0 mm 1 mps 690 mmHg 34%
09:00 +20°C° 0 mm 1 mps 690 mmHg 33%
10:00 +20°C° 0 mm 1 mps 689 mmHg 33%
11:00 +21°C° 0 mm 1 mps 689 mmHg 33%
12:00 +21°C° 0 mm 1 mps 689 mmHg 32%
13:00 +21°C° 0 mm 2 mps 689 mmHg 31%
14:00 +21°C° 0 mm 2 mps 689 mmHg 30%
15:00 +20°C° 0 mm 2 mps 689 mmHg 32%
16:00 +20°C° 0 mm 2 mps 689 mmHg 33%
17:00 +19°C° 0 mm 2 mps 689 mmHg 35%
18:00 +18°C° 0 mm 2 mps 689 mmHg 41%
19:00 +17°C° 0 mm 2 mps 690 mmHg 46%
20:00 +16°C° 0 mm 2 mps 690 mmHg 52%
21:00 +16°C° 0 mm 2 mps 690 mmHg 55%
22:00 +15°C° 0 mm 1 mps 689 mmHg 58%
23:00 +15°C° 0 mm 1 mps 689 mmHg 62%

30 September, Wednesday

Time Temperature Precipitation Wind Pressure Humidity
00:00 +14°C° 0.1 mm 1 mps 689 mmHg 64%
01:00 +14°C° 0.1 mm 1 mps 689 mmHg 66%
02:00 +14°C° 0.1 mm 1 mps 688 mmHg 67%
03:00 +14°C° 0.3 mm 1 mps 688 mmHg 73%
04:00 +13°C° 0.3 mm 1 mps 688 mmHg 78%
05:00 +12°C° 0.3 mm 0 mps 688 mmHg 83%
06:00 +12°C° 0.3 mm 0 mps 688 mmHg 83%
07:00 +12°C° 0.3 mm 0 mps 688 mmHg 83%
08:00 +13°C° 0.3 mm 1 mps 689 mmHg 83%
09:00 +14°C° 0.1 mm 1 mps 689 mmHg 78%
10:00 +14°C° 0.1 mm 1 mps 689 mmHg 74%
11:00 +15°C° 0.1 mm 1 mps 689 mmHg 69%
12:00 +16°C° 0 mm 1 mps 689 mmHg 63%
13:00 +18°C° 0 mm 1 mps 689 mmHg 57%
14:00 +20°C° 0 mm 1 mps 689 mmHg 51%
15:00 +20°C° 0 mm 1 mps 689 mmHg 50%
16:00 +19°C° 0 mm 1 mps 689 mmHg 49%
17:00 +19°C° 0 mm 1 mps 689 mmHg 48%
18:00 +18°C° 0 mm 1 mps 689 mmHg 53%
19:00 +16°C° 0 mm 1 mps 689 mmHg 58%
20:00 +14°C° 0 mm 1 mps 689 mmHg 64%
21:00 +14°C° 0 mm 1 mps 689 mmHg 64%
22:00 +14°C° 0 mm 2 mps 689 mmHg 65%
23:00 +14°C° 0 mm 2 mps 688 mmHg 66%
Show more